Time,TemperatureF,DewpointF,PressureIn,WindDirection,WindDirectionDegrees,WindSpeedMPH,WindSpeedGustMPH,Humidity,HourlyPrecipIn,Conditions,Clouds,dailyrainin,SolarRadiationWatts/m^2,SoftwareType,DateUTC
2013-03-16 00:02:00,34.0,16.0,-100.00,NW,324,3.0,4.0,47,0.00,,,0.00,0.000000,,2013-03-16 06:02:00,
2013-03-16 00:32:00,32.0,15.0,-100.00,NW,308,2.0,4.0,50,0.00,,,0.00,0.000000,,2013-03-16 06:32:00,
2013-03-16 00:42:00,32.0,15.0,-100.00,NW,308,2.0,4.0,50,0.00,,,0.00,0.000000,,2013-03-16 06:42:00,
2013-03-16 00:52:00,32.0,15.0,-100.00,NW,308,2.0,4.0,50,0.00,,,0.00,0.000000,,2013-03-16 06:52:00,
2013-03-16 01:02:00,32.0,15.0,-100.00,NW,308,2.0,4.0,50,0.00,,,0.00,0.000000,,2013-03-16 07:02:00,
2013-03-16 01:32:00,30.0,16.0,-100.00,WNW,285,1.0,4.0,56,0.00,,,0.00,0.000000,,2013-03-16 07:32:00,
2013-03-16 01:42:00,30.0,16.0,-100.00,WNW,285,1.0,4.0,56,0.00,,,0.00,0.000000,,2013-03-16 07:42:00,
2013-03-16 01:52:00,30.0,16.0,-100.00,WNW,285,1.0,4.0,56,0.00,,,0.00,0.000000,,2013-03-16 07:52:00,
2013-03-16 02:02:00,30.0,16.0,-100.00,WNW,285,1.0,4.0,56,0.00,,,0.00,0.000000,,2013-03-16 08:02:00,
2013-03-16 02:33:00,30.0,15.0,-100.00,NW,321,3.0,4.0,52,0.00,,,0.00,0.000000,,2013-03-16 08:33:00,
2013-03-16 02:42:00,30.0,15.0,-100.00,NW,321,3.0,4.0,52,0.00,,,0.00,0.000000,,2013-03-16 08:42:00,
2013-03-16 02:52:00,30.0,15.0,-100.00,NW,321,3.0,4.0,52,0.00,,,0.00,0.000000,,2013-03-16 08:52:00,
2013-03-16 03:01:00,30.0,15.0,-100.00,NW,321,3.0,4.0,52,0.00,,,0.00,0.000000,,2013-03-16 09:01:00,
2013-03-16 03:33:00,31.0,15.0,-100.00,NW,315,4.0,7.0,52,0.00,,,0.00,0.000000,,2013-03-16 09:33:00,
2013-03-16 03:43:00,31.0,15.0,-100.00,NW,315,4.0,7.0,52,0.00,,,0.00,0.000000,,2013-03-16 09:43:00,
2013-03-16 03:53:00,31.0,15.0,-100.00,NW,315,4.0,7.0,52,0.00,,,0.00,0.000000,,2013-03-16 09:53:00,
2013-03-16 04:03:00,31.0,15.0,-100.00,NW,315,4.0,7.0,52,0.00,,,0.00,0.000000,,2013-03-16 10:03:00,
2013-03-16 04:32:00,34.0,23.0,-100.00,North,354,7.0,15.0,65,0.00,,,0.00,0.000000,,2013-03-16 10:32:00,
2013-03-16 04:42:00,34.0,23.0,-100.00,North,354,7.0,15.0,65,0.00,,,0.00,0.000000,,2013-03-16 10:42:00,
2013-03-16 04:53:00,34.0,23.0,-100.00,North,354,7.0,15.0,65,0.00,,,0.00,0.000000,,2013-03-16 10:53:00,
2013-03-16 05:03:00,34.0,23.0,-100.00,North,354,7.0,15.0,65,0.00,,,0.00,0.000000,,2013-03-16 11:03:00,
2013-03-16 05:33:00,30.0,22.0,-100.00,NNE,20,3.0,12.0,72,0.00,,,0.00,0.000000,,2013-03-16 11:33:00,
2013-03-16 05:43:00,30.0,22.0,-100.00,NNE,20,3.0,12.0,72,0.00,,,0.00,0.000000,,2013-03-16 11:43:00,
2013-03-16 05:53:00,30.0,22.0,-100.00,NNE,20,3.0,12.0,72,0.00,,,0.00,0.000000,,2013-03-16 11:53:00,
2013-03-16 06:02:00,30.0,22.0,-100.00,NNE,20,3.0,12.0,72,0.00,,,0.00,0.000000,,2013-03-16 12:02:00,
2013-03-16 06:32:00,30.0,24.0,-100.00,NNW,339,5.0,9.0,79,0.00,,,0.00,0.000000,,2013-03-16 12:32:00,
2013-03-16 06:43:00,30.0,24.0,-100.00,NNW,339,5.0,9.0,79,0.00,,,0.00,0.000000,,2013-03-16 12:43:00,
2013-03-16 06:53:00,30.0,24.0,-100.00,NNW,339,5.0,9.0,79,0.00,,,0.00,0.000000,,2013-03-16 12:53:00,
2013-03-16 07:02:00,30.0,24.0,-100.00,NNW,339,5.0,9.0,79,0.00,,,0.00,0.000000,,2013-03-16 13:02:00,
2013-03-16 07:32:00,30.0,27.0,-100.00,SW,221,3.0,6.0,88,0.00,,,0.00,0.000000,,2013-03-16 13:32:00,
2013-03-16 07:42:00,30.0,27.0,-100.00,SW,221,3.0,6.0,88,0.00,,,0.00,0.000000,,2013-03-16 13:42:00,
2013-03-16 07:53:00,30.0,27.0,-100.00,SW,221,3.0,6.0,88,0.00,,,0.00,0.000000,,2013-03-16 13:53:00,
2013-03-16 08:02:00,30.0,27.0,-100.00,SW,221,3.0,6.0,88,0.00,,,0.00,0.000000,,2013-03-16 14:02:00,
2013-03-16 08:32:00,30.0,29.0,-100.00,South,173,3.0,9.0,95,0.00,,,0.00,20.000000,,2013-03-16 14:32:00,
2013-03-16 08:42:00,30.0,29.0,-100.00,South,173,3.0,9.0,95,0.00,,,0.00,20.000000,,2013-03-16 14:42:00,
2013-03-16 08:52:00,30.0,29.0,-100.00,South,173,3.0,9.0,95,0.00,,,0.00,20.000000,,2013-03-16 14:52:00,
2013-03-16 09:02:00,30.0,29.0,-100.00,South,173,3.0,9.0,95,0.00,,,0.00,20.000000,,2013-03-16 15:02:00,
2013-03-16 09:33:00,32.0,29.0,-100.00,SSE,165,2.0,6.0,87,0.00,,,0.00,108.000000,,2013-03-16 15:33:00,
2013-03-16 09:44:00,32.0,29.0,-100.00,SSE,165,2.0,6.0,87,0.00,,,0.00,108.000000,,2013-03-16 15:44:00,
2013-03-16 09:53:00,32.0,29.0,-100.00,SSE,165,2.0,6.0,87,0.00,,,0.00,108.000000,,2013-03-16 15:53:00,
2013-03-16 10:03:00,32.0,29.0,-100.00,SSE,165,2.0,6.0,87,0.00,,,0.00,108.000000,,2013-03-16 16:03:00,
2013-03-16 10:33:00,34.0,29.0,-100.00,SSE,166,3.0,6.0,82,0.00,,,0.00,197.000000,,2013-03-16 16:33:00,
2013-03-16 10:43:00,34.0,29.0,-100.00,SSE,166,3.0,6.0,82,0.00,,,0.00,197.000000,,2013-03-16 16:43:00,
2013-03-16 10:53:00,34.0,29.0,-100.00,SSE,166,3.0,6.0,82,0.00,,,0.00,197.000000,,2013-03-16 16:53:00,
2013-03-16 11:03:00,34.0,29.0,-100.00,SSE,166,3.0,6.0,82,0.00,,,0.00,197.000000,,2013-03-16 17:03:00,
2013-03-16 11:33:00,35.0,27.0,-100.00,NE,52,2.0,7.0,72,0.00,,,0.00,278.000000,,2013-03-16 17:33:00,
2013-03-16 11:43:00,35.0,27.0,-100.00,NE,52,2.0,7.0,72,0.00,,,0.00,278.000000,,2013-03-16 17:43:00,
2013-03-16 11:53:00,35.0,27.0,-100.00,NE,52,2.0,7.0,72,0.00,,,0.00,278.000000,,2013-03-16 17:53:00,
2013-03-16 12:02:00,35.0,27.0,-100.00,NE,52,2.0,7.0,72,0.00,,,0.00,278.000000,,2013-03-16 18:02:00,
2013-03-16 12:33:00,36.0,29.0,-100.00,East,79,3.0,6.0,76,0.00,,,-99.99,320.000000,,2013-03-16 18:33:00,
2013-03-16 12:43:00,36.0,29.0,-100.00,East,79,3.0,6.0,76,0.00,,,-99.99,320.000000,,2013-03-16 18:43:00,
2013-03-16 12:53:00,36.0,29.0,-100.00,East,79,3.0,6.0,76,0.00,,,-99.99,320.000000,,2013-03-16 18:53:00,
2013-03-16 13:02:00,36.0,29.0,-100.00,East,79,3.0,6.0,76,0.00,,,-99.99,320.000000,,2013-03-16 19:02:00,
2013-03-16 13:33:00,35.0,30.0,-100.00,ENE,66,2.0,6.0,81,0.01,,,0.01,307.000000,,2013-03-16 19:33:00,
2013-03-16 13:42:00,35.0,30.0,-100.00,ENE,66,2.0,6.0,81,0.01,,,0.01,307.000000,,2013-03-16 19:42:00,
2013-03-16 13:53:00,35.0,30.0,-100.00,ENE,66,2.0,6.0,81,0.01,,,0.01,307.000000,,2013-03-16 19:53:00,
2013-03-16 14:02:00,35.0,30.0,-100.00,ENE,66,2.0,6.0,81,0.01,,,0.01,307.000000,,2013-03-16 20:02:00,
2013-03-16 14:33:00,39.0,27.0,-100.00,ENE,70,2.0,8.0,61,0.00,,,0.01,441.000000,,2013-03-16 20:33:00,
2013-03-16 14:42:00,39.0,27.0,-100.00,ENE,70,2.0,8.0,61,0.00,,,0.01,441.000000,,2013-03-16 20:42:00,
2013-03-16 14:52:00,39.0,27.0,-100.00,ENE,70,2.0,8.0,61,0.00,,,0.01,441.000000,,2013-03-16 20:52:00,
2013-03-16 15:02:00,39.0,27.0,-100.00,ENE,70,2.0,8.0,61,0.00,,,0.01,441.000000,,2013-03-16 21:02:00,
2013-03-16 15:33:00,38.0,29.0,-100.00,SE,134,3.0,6.0,69,0.01,,,0.02,301.000000,,2013-03-16 21:33:00,
2013-03-16 15:43:00,38.0,29.0,-100.00,SE,134,3.0,6.0,69,0.01,,,0.02,301.000000,,2013-03-16 21:43:00,
2013-03-16 15:53:00,38.0,29.0,-100.00,SE,134,3.0,6.0,69,0.01,,,0.02,301.000000,,2013-03-16 21:53:00,
2013-03-16 16:03:00,38.0,29.0,-100.00,SE,134,3.0,6.0,69,0.01,,,0.02,301.000000,,2013-03-16 22:03:00,
2013-03-16 16:33:00,37.0,24.0,-100.00,NNE,18,5.0,14.0,59,0.00,,,0.02,431.000000,,2013-03-16 22:33:00,
2013-03-16 16:42:00,37.0,24.0,-100.00,NNE,18,5.0,14.0,59,0.00,,,0.02,431.000000,,2013-03-16 22:42:00,
2013-03-16 16:53:00,37.0,24.0,-100.00,NNE,18,5.0,14.0,59,0.00,,,0.02,431.000000,,2013-03-16 22:53:00,
2013-03-16 17:02:00,37.0,24.0,-100.00,NNE,18,5.0,14.0,59,0.00,,,0.02,431.000000,,2013-03-16 23:02:00,
2013-03-16 17:33:00,33.0,29.0,-100.00,ESE,119,2.0,22.0,84,0.00,,,0.02,148.000000,,2013-03-16 23:33:00,
2013-03-16 17:42:00,33.0,29.0,-100.00,ESE,119,2.0,22.0,84,0.00,,,0.02,148.000000,,2013-03-16 23:42:00,
2013-03-16 17:52:00,33.0,29.0,-100.00,ESE,119,2.0,22.0,84,0.00,,,0.02,148.000000,,2013-03-16 23:52:00,
2013-03-16 18:02:00,33.0,29.0,-100.00,ESE,119,2.0,22.0,84,0.00,,,0.02,148.000000,,2013-03-17 00:02:00,
2013-03-16 18:33:00,33.0,24.0,-100.00,South,174,4.0,7.0,70,0.00,,,0.02,131.000000,,2013-03-17 00:33:00,
2013-03-16 18:43:00,33.0,24.0,-100.00,South,174,4.0,7.0,70,0.00,,,0.02,131.000000,,2013-03-17 00:43:00,
2013-03-16 18:52:00,33.0,24.0,-100.00,South,174,4.0,7.0,70,0.00,,,0.02,131.000000,,2013-03-17 00:52:00,
2013-03-16 19:02:00,33.0,24.0,-100.00,South,174,4.0,7.0,70,0.00,,,0.02,131.000000,,2013-03-17 01:02:00,
2013-03-16 19:33:00,32.0,24.0,-100.00,WNW,287,0.0,7.0,72,0.00,,,0.02,62.000000,,2013-03-17 01:33:00,
2013-03-16 19:43:00,32.0,24.0,-100.00,WNW,287,0.0,7.0,72,0.00,,,0.02,62.000000,,2013-03-17 01:43:00,
2013-03-16 19:53:00,32.0,24.0,-100.00,WNW,287,0.0,7.0,72,0.00,,,0.02,62.000000,,2013-03-17 01:53:00,
2013-03-16 20:02:00,32.0,24.0,-100.00,WNW,287,0.0,7.0,72,0.00,,,0.02,62.000000,,2013-03-17 02:02:00,
2013-03-16 20:33:00,29.0,23.0,-100.00,NW,323,3.0,5.0,77,0.00,,,0.02,1.000000,,2013-03-17 02:33:00,
2013-03-16 20:43:00,29.0,23.0,-100.00,NW,323,3.0,5.0,77,0.00,,,0.02,1.000000,,2013-03-17 02:43:00,
2013-03-16 20:53:00,29.0,23.0,-100.00,NW,323,3.0,5.0,77,0.00,,,0.02,1.000000,,2013-03-17 02:53:00,
2013-03-16 21:02:00,29.0,23.0,-100.00,NW,323,3.0,5.0,77,0.00,,,0.02,1.000000,,2013-03-17 03:02:00,
2013-03-16 21:34:00,29.0,25.0,-100.00,North,351,7.0,13.0,84,0.00,,,0.02,0.000000,,2013-03-17 03:34:00,
2013-03-16 21:43:00,29.0,25.0,-100.00,North,351,7.0,13.0,84,0.00,,,0.02,0.000000,,2013-03-17 03:43:00,
2013-03-16 21:53:00,29.0,25.0,-100.00,North,351,7.0,13.0,84,0.00,,,0.02,0.000000,,2013-03-17 03:53:00,
2013-03-16 22:03:00,29.0,25.0,-100.00,North,351,7.0,13.0,84,0.00,,,0.02,0.000000,,2013-03-17 04:03:00,
2013-03-16 22:33:00,28.0,24.0,-100.00,ESE,116,1.0,12.0,83,0.00,,,0.02,0.000000,,2013-03-17 04:33:00,
2013-03-16 22:43:00,28.0,24.0,-100.00,ESE,116,1.0,12.0,83,0.00,,,0.02,0.000000,,2013-03-17 04:43:00,
2013-03-16 22:53:00,28.0,24.0,-100.00,ESE,116,1.0,12.0,83,0.00,,,0.02,0.000000,,2013-03-17 04:53:00,
2013-03-16 23:02:00,28.0,24.0,-100.00,ESE,116,1.0,12.0,83,0.00,,,0.02,0.000000,,2013-03-17 05:02:00,
2013-03-16 23:32:00,27.0,23.0,-100.00,SSE,150,1.0,11.0,85,0.00,,,0.02,0.000000,,2013-03-17 05:32:00,
2013-03-16 23:42:00,27.0,23.0,-100.00,SSE,150,1.0,11.0,85,0.00,,,0.02,0.000000,,2013-03-17 05:42:00,
2013-03-16 23:52:00,27.0,23.0,-100.00,SSE,150,1.0,11.0,85,0.00,,,0.02,0.000000,,2013-03-17 05:52:00,